Milwaukee Timmerman, WI

8:19 PM CDT on June 23, 2017 (GMT -0500)
Timmerman

Weather History for KMWC - November, 2011

Change the Weather History Date:

Friday, November 25, 2011

  Actual Average Record
Temperature  
Mean Temperature 46 °F -  
Max Temperature 51 °F 42 °F 58 °F (1966)
Min Temperature 42 °F 28 °F -8 °F (1950)
Degree Days  
Heating Degree Days 18    
Moisture  
Dew Point 40 °F    
Average Humidity 74    
Maximum Humidity 82    
Minimum Humidity 62    
Precipitation  
Precipitation 0.00 in - - ()
Sea Level Pressure  
Sea Level Pressure 29.89 in    
Wind  
Wind Speed 11 mph (SSW)    
Max Wind Speed 20 mph    
Max Gust Speed 29 mph    
Visibility 10 miles    
Events      
Averages and records for this station are not official NWS values.
T = Trace of Precipitation, MM = Missing Value Source: NWS Daily Summary

Daily Weather History Graph

Daily Weather History Graph

Search for Another Location

Airport or City:

Trip Planner

Search our weather history database for the weather conditions in past years. The results will help you decide how hot, cold, wet, or windy it might be!

Date:

Astronomy

Nov. 25, 2011 Rise Set
Actual Time 6:56 AM CST 4:20 PM CST
Civil Twilight 6:25 AM CST 4:52 PM CST
Nautical Twilight 5:50 AM CST 5:27 PM CST
Astronomical Twilight 5:16 AM CST 6:01 PM CST
Moon 7:26 AM CST (11/25) 4:46 PM CST (11/25)
Length of Visible Light 10h 26m
Length of Day
9h 24m
New Moon, 0% of the Moon is Illuminated
Nov 25
New Moon
Dec 2
First Quarter
Dec 10
Full
Dec 17
Last Quarter
Dec 24
New

Hourly Weather History & Observations

Time (CST) Temp. Windchill Dew Point Humidity Pressure Visibility Wind Dir Wind Speed Gust Speed Precip Events Conditions
12:15 AM 44.6 °F 38.4 °F 39.2 °F 81% 29.95 in 10.0 mi SSW 12.7 mph 19.6 mph N/A   Clear
12:55 AM 46.4 °F 39.5 °F 39.2 °F 76% 29.94 in 10.0 mi SSW 17.3 mph 24.2 mph N/A   Clear
1:15 AM 46.4 °F 40.4 °F 37.4 °F 71% 29.94 in 10.0 mi SW 13.8 mph 21.9 mph N/A   Clear
1:35 AM 46.4 °F 40.7 °F 37.4 °F 71% 29.93 in 10.0 mi SW 12.7 mph 24.2 mph N/A   Clear
1:55 AM 46.4 °F 41.1 °F 37.4 °F 71% 29.94 in 10.0 mi SW 11.5 mph 19.6 mph N/A   Clear
2:15 AM 46.4 °F 41.5 °F 37.4 °F 71% 29.94 in 10.0 mi SW 10.4 mph 18.4 mph N/A   Clear
2:35 AM 46.4 °F 40.7 °F 37.4 °F 71% 29.94 in 10.0 mi SW 12.7 mph 21.9 mph N/A   Clear
2:55 AM 44.6 °F 37.8 °F 37.4 °F 76% 29.93 in 10.0 mi SW 15.0 mph 19.6 mph N/A   Clear
3:15 AM 44.6 °F 39.7 °F 37.4 °F 76% 29.92 in 10.0 mi SSW 9.2 mph - N/A   Clear
3:35 AM 44.6 °F 37.4 °F 37.4 °F 76% 29.92 in 10.0 mi SW 16.1 mph 19.6 mph N/A   Clear
4:35 AM 44.6 °F 39.7 °F 37.4 °F 76% 29.91 in 10.0 mi SSW 9.2 mph 17.3 mph N/A   Clear
4:55 AM 44.6 °F 38.8 °F 37.4 °F 76% 29.91 in 10.0 mi SSW 11.5 mph 19.6 mph N/A   Clear
5:15 AM 44.6 °F 40.7 °F 37.4 °F 76% 29.91 in 10.0 mi SSW 6.9 mph - N/A   Clear
5:35 AM 44.6 °F 39.2 °F 37.4 °F 76% 29.91 in 10.0 mi SSW 10.4 mph - N/A   Clear
5:55 AM 44.6 °F 38.8 °F 35.6 °F 71% 29.91 in 10.0 mi SSW 11.5 mph - N/A   Clear
6:45 AM 42.8 °F 38.6 °F 35.6 °F 76% 29.91 in 10.0 mi South 6.9 mph - N/A   Clear
7:45 AM 42.8 °F 38.0 °F 37.4 °F 81% 29.91 in 10.0 mi SSW 8.1 mph - N/A   Clear
10:45 AM 48.2 °F - 37.4 °F 66% 29.88 in 10.0 mi SW 12.7 mph 27.6 mph N/A   Clear
11:45 AM 51.8 °F - 39.2 °F 62% 29.86 in 10.0 mi SW 19.6 mph 25.3 mph N/A   Clear
12:45 PM 51.8 °F - 39.2 °F 62% 29.83 in 10.0 mi SSW 16.1 mph 28.8 mph N/A   Clear
1:45 PM 51.8 °F - 41.0 °F 67% 29.82 in 10.0 mi SW 12.7 mph 27.6 mph N/A   Clear
2:45 PM 51.8 °F - 42.8 °F 71% 29.82 in 10.0 mi SSW 13.8 mph 18.4 mph N/A   Scattered Clouds
3:45 PM 51.8 °F - 42.8 °F 71% 29.83 in 10.0 mi SW 17.3 mph - N/A   Overcast
5:45 PM 50.0 °F - 42.8 °F 76% 29.85 in 10.0 mi SSW 6.9 mph - N/A   Mostly Cloudy
6:45 PM 50.0 °F - 42.8 °F 76% 29.86 in 10.0 mi SSW 5.8 mph - N/A   Scattered Clouds
7:45 PM 48.2 °F - 42.8 °F 82% 29.86 in 10.0 mi SW 4.6 mph - N/A   Mostly Cloudy
8:15 PM 50.0 °F - 42.8 °F 76% 29.87 in 10.0 mi SW 5.8 mph - N/A   Overcast
8:35 PM 50.0 °F - 42.8 °F 76% 29.86 in 10.0 mi SSW 5.8 mph - N/A   Overcast
8:45 PM 50.0 °F - 42.8 °F 76% 29.86 in 10.0 mi SW 4.6 mph - N/A   Overcast
9:55 PM 48.2 °F - 42.8 °F 82% 29.86 in 10.0 mi South 3.5 mph - N/A   Overcast
10:15 PM 50.0 °F - 42.8 °F 76% 29.86 in 10.0 mi South 3.5 mph - N/A   Overcast
10:35 PM 50.0 °F - 42.8 °F 76% 29.86 in 10.0 mi South 3.5 mph - N/A   Overcast
10:55 PM 50.0 °F - 42.8 °F 76% 29.86 in 10.0 mi South 3.5 mph - N/A   Overcast
11:15 PM 50.0 °F - 42.8 °F 76% 29.86 in 10.0 mi SSE 3.5 mph - N/A   Overcast
11:35 PM 50.0 °F - 42.8 °F 76% 29.85 in 10.0 mi SSE 4.6 mph - N/A   Overcast